BANE

Satellite information

Favourite Embed

Satellite Type and Status

PAYLOADIN ORBIT

Key statistics

Satellite BANE at a glance.

Uptime

528

Days in orbit

Revolutions

≈ 15.4

Per day

Orbit

SSO

Sun Synchronous Orbit

Inclination

97.4

Latest

Satellite identification and parameters

Extended collection of information and parameters for BANE.

Object identification

Identified? True

Debris? False

Object name: BANE

International designator: 2023-185D

Object number (NORAD): 58465

Object ID (CCSDS): 58465

Country: UNITED STATES OF AMERICA (US)

Current information (Y/N): Y

RCS size: MEDIUM

Orbital parameters

Period: 93.538 minutes

Inclination: 97.3822 deg

SMA: 6825.755 km

Apoapsis: 452.526 km

Periapsis: 442.714 km

RAAN: 202.8379 deg

Eccentricy: 0.0007187

Argument of periapsis: 183.5565 deg

Mean anomaly: 176.5631 deg

Mean motion: 15.39489468 rev/day

Mean motion (dot): 0.00022104 rev/day2

B* drag term: 0.00056411 1/REarth

Two-line elements (TLE)

Creation date: May 12, 2025, 2:31 a.m.

Reference frame: TEME

Reference center: EARTH

Epoch: May 11, 2025, 9:59 p.m. UTC

TLE line 0: 0 BANE

TLE line 1: 1 58465U 23185D 25131.91652784 .00022104 00000-0 56411-3 0 9990

TLE line 2: 2 58465 97.3822 202.8379 0007187 183.5565 176.5631 15.39489468 80350

Live tracking on map

Real-time ground track for satellite BANE.

In-orbit conjunctions

There are no conjunctions computed for BANE, at the moment. Check back to stay up to date, as we update our databases every day.

Go to all conjunctions

Associated space launch

Note: Name of payload is provisional. First launch of an ultimately 5 reconnaissance satellites for the South Korean Defense Acquisition Program Administration (DAPA), with 1 satellite featuring an electro-optical infrared (EO/IR) telescope. The other 4 synthetic aperture radar (SAR) satellites are to be launched at a later date. They will be launched to low Earth orbit between 600 and 700 km by 2025, enabling South Korea’s military to observe the nuclear-armed neighbor’s key military facilities every two hours with 30-50 centimeters resolution imagery, according to a 2019 report produced by the Korea Institute of S&T Evaluation and Planning. The project is lead by the Korean Agency for Defense Development (ADD) and Korea Aerospace Research Institute (KARI), with input from Korea Aerospace Industries (KAI), Hanwha Systems and Thales Alenia Space. ESA's EIRSAT-1 is also onboard as a rideshare passenger. This 2U cubesat carries three experiments, including a novel gamma ray detector to study some of the most luminous explosions in the universe.

BANE was lifted into orbit during the mission ‘Falcon 9 Block 5 | 425 Project Flight 1 & rideshare’, on board a Falcon 9 space rocket.

The launch took place on Dec. 1, 2023, 6:19 p.m. from Space Launch Complex 4E.

For more information about the launch, click the button.

Launch to space Falcon 9 Block 5 | 425 Project Flight 1 & rideshare
Falcon 9 Block 5 | 425 Project Flight 1 & rideshare

Agency: N/A

Status: Launch Successful

Launch date: Dec. 1, 2023, 6:19 p.m. UTC

Rocket: Falcon 9

Launch pad: Space Launch Complex 4E

Location: Vandenberg SFB, CA, USA

...

Latest news about this satellite

News about space launch
Launch Roundup: Soyuz resupplies the ISS; SpaceX launches more Starlink satellites

This week, SpaceX continued its incredible launch cadence with two more launches of Falcon 9, a Soyuz 2.1a resupplied the International Space Station (ISS), and three missions launched consecutively out of China.


Newsletter sign-up

Weekly statistics, charts and insights to help you stay on top of the space industry.